User: anonymous   Login
Location: Unspecified
(0.0000°N, 0.0000°E)
Time: 17:12:02
(UTC+00:00)
Language:

COSMOS 2439 - Orbit

View from above orbital plane
View from above orbital plane
View from above satellite
View from above satellite

Ground track
Ground track

The orbit data is extracted from the following two-line orbital elements,

1 32956U 08025D   19017.16166305  .00000010  00000-0  27145-5 0  9991
2 32956  82.5040 240.9320 0021448 103.6158 256.7307 12.43006400483352
Epoch (UTC): 17 January 2019 03:52:47
Eccentricity: 0.0021448
inclination: 82.5040°
perigee height: 1477 km
apogee height: 1511 km
right ascension of ascending node: 240.9320°
argument of perigee: 103.6158°
revolutions per day: 12.43006400
mean anomaly at epoch: 256.7307°
orbit number at epoch: 48335

The dashed part of the orbit path shows where the satellite is in the earth's shadow,  

DLR